Home > Weather > Hartford > Past weeks

Flag for U.S.A. Weather for the Past 2 Weeks in Hartford, Connecticut, U.S.A.

Now
30 °F

Clear.


Feels Like: 24 °F
Forecast: 24 / 44 °F
Wind: 6 mph from Southeast

Location: Hartford-Brainard Airport

Current Time: Feb 7, 2016 at 12:09:04 AM

Latest Report: Feb 6, 2016 at 10:53 PM


Visibility: 10 mi

Pressure: 30.26 "Hg

Humidity: 82%

Dew point: 25 °F

Location of HartfordLocation

Historic Weather in Hartford — Graph

°F

Hartford Temperature Yesterday

Maximum temperature yesterday: 38 °F (at 1:53 PM)
Minimum temperature yesterday: 16 °F (at 3:56 AM)
Average temperature yesterday: 28 °F

High & Low Weather Summary for the Past Weeks

 TemperatureHumidityPressure
High62 °F (Feb 1, 11:53 AM)100% (Jan 26, 7:53 AM)30.42 "Hg (Jan 26, 7:53 AM)
Low16 °F (Feb 6, 3:56 AM)27% (Jan 24, 2:53 PM)29.40 "Hg (Jan 29, 12:53 PM)
Average37 °F64%30.00 "Hg
* Reported Jan 22 10:53 PM — Feb 6 10:53 PM, Hartford, Weather by CustomWeather, © 2016

Note: Actual official high and low records may vary slightly from our data, if they occured in-between our weather recording intervals... More about our weather records

Advertising

Hartford Weather History for the Previous 24 Hours

 ConditionsComfort  
Time TempWeatherWind HumidityBarometerVisibility
10:53 PM
Sat, Feb 6
30 °FClear.6 mph82%30.26 "Hg10 mi
9:53 PM28 °FClear.3 mph85%30.27 "Hg10 mi
8:53 PM27 °FClear.5 mph89%30.27 "Hg10 mi
7:53 PM32 °FClear.3 mph73%30.28 "Hg10 mi
6:53 PM33 °FClear.7 mph70%30.28 "Hg10 mi
5:53 PM34 °FClear.8 mph64%30.28 "Hg10 mi
4:53 PM36 °FSunny.9 mph57%30.27 "Hg10 mi
3:53 PM36 °FSunny.10 mph62%30.27 "Hg10 mi
2:53 PM37 °FSunny.13 mph57%30.28 "Hg10 mi
1:53 PM38 °FSunny.10 mph51%30.30 "Hg10 mi
12:53 PM37 °FSunny.5 mph52%30.32 "Hg10 mi
11:53 AM35 °FSunny.7 mph56%30.36 "Hg10 mi
10:53 AM32 °FSunny.6 mph73%30.40 "Hg10 mi
9:53 AM29 °FSunny.6 mph79%30.42 "Hg10 mi
8:53 AM22 °FSunny.3 mph92%30.41 "Hg10 mi
7:53 AM20 °FSunny.3 mph89%30.41 "Hg10 mi
6:53 AM17 °FClear.3 mph83%30.39 "Hg10 mi
5:53 AM18 °FPassing clouds.3 mph80%30.38 "Hg6 mi
5:01 AM18 °FIce fog.3 mph88%30.36 "Hg6 mi
3:56 AM16 °FIce fog.No wind92%30.35 "Hg2 mi
2:53 AM20 °FClear.No wind89%30.35 "Hg10 mi
1:53 AM20 °FClear.3 mph92%30.32 "Hg10 mi
12:53 AM21 °FClear.No wind88%30.30 "Hg10 mi
Weather by CustomWeather, © 2016

See weather overviewHow to use our weather pages